When you browse on this site, cookies collect data to enhance your experience and personalize the content and advertising you see.
Visit our Privacy Policy to learn more. By continuing to use the site, you agree to this use of cookies and data.
  • In United Kingdom
  • List of Countries
  • For 7 days
  • Water Temperature
  • Weather Map
  • Weather Widgets
  • user-avatar
    Login

    Hourly Weather Tryavna

    Today, 30 March, Monday

    Time Temperature Precipitation Wind Pressure Humidity
    00:00 +6°C° 0 mm 2 mps 700 mmHg 72%
    01:00 +6°C° 0 mm 2 mps 700 mmHg 72%
    02:00 +6°C° 0 mm 2 mps 700 mmHg 71%
    03:00 +5°C° 0 mm 2 mps 700 mmHg 70%
    04:00 +5°C° 0 mm 2 mps 700 mmHg 70%
    05:00 +5°C° 0 mm 2 mps 700 mmHg 69%
    06:00 +6°C° 0 mm 2 mps 701 mmHg 67%
    07:00 +7°C° 0 mm 2 mps 701 mmHg 65%
    08:00 +8°C° 0 mm 2 mps 701 mmHg 62%
    09:00 +10°C° 0 mm 3 mps 702 mmHg 59%
    10:00 +11°C° 0 mm 4 mps 702 mmHg 56%
    11:00 +12°C° 0 mm 4 mps 702 mmHg 52%
    12:00 +12°C° 0.1 mm 4 mps 702 mmHg 52%
    13:00 +13°C° 0.1 mm 4 mps 702 mmHg 53%
    14:00 +13°C° 0.1 mm 3 mps 702 mmHg 53%
    15:00 +12°C° 0.3 mm 3 mps 701 mmHg 56%
    16:00 +12°C° 0.3 mm 3 mps 701 mmHg 59%
    17:00 +11°C° 0.3 mm 3 mps 701 mmHg 62%
    18:00 +10°C° 0.1 mm 2 mps 701 mmHg 69%
    19:00 +9°C° 0.1 mm 2 mps 701 mmHg 75%
    20:00 +7°C° 0.1 mm 2 mps 702 mmHg 81%
    21:00 +7°C° 0 mm 2 mps 702 mmHg 83%
    22:00 +6°C° 0 mm 2 mps 702 mmHg 85%
    23:00 +6°C° 0 mm 2 mps 702 mmHg 87%

    Tomorrow, 31 March, Tuesday

    Time Temperature Precipitation Wind Pressure Humidity
    00:00 +5°C° 0 mm 2 mps 702 mmHg 86%
    01:00 +5°C° 0 mm 2 mps 702 mmHg 86%
    02:00 +4°C° 0 mm 2 mps 702 mmHg 85%
    03:00 +4°C° 0 mm 2 mps 703 mmHg 84%
    04:00 +4°C° 0 mm 2 mps 703 mmHg 82%
    05:00 +3°C° 0 mm 2 mps 703 mmHg 81%
    06:00 +3°C° 0 mm 3 mps 703 mmHg 78%
    07:00 +3°C° 0 mm 3 mps 703 mmHg 75%
    08:00 +3°C° 0 mm 3 mps 704 mmHg 72%
    09:00 +4°C° 0.1 mm 3 mps 704 mmHg 69%
    10:00 +5°C° 0.1 mm 3 mps 704 mmHg 67%
    11:00 +5°C° 0.1 mm 3 mps 705 mmHg 64%
    12:00 +7°C° 0 mm 3 mps 705 mmHg 61%
    13:00 +7°C° 0 mm 3 mps 705 mmHg 59%
    14:00 +8°C° 0 mm 3 mps 705 mmHg 57%
    15:00 +7°C° 0 mm 3 mps 705 mmHg 62%
    16:00 +7°C° 0 mm 3 mps 705 mmHg 67%
    17:00 +5°C° 0 mm 3 mps 705 mmHg 72%
    18:00 +4°C° 0.1 mm 3 mps 705 mmHg 78%
    19:00 +4°C° 0.1 mm 2 mps 705 mmHg 84%
    20:00 +3°C° 0.1 mm 2 mps 705 mmHg 89%
    21:00 +3°C° 0.5 mm 2 mps 705 mmHg 91%
    22:00 +2°C° 0.5 mm 2 mps 705 mmHg 93%
    23:00 +2°C° 0.5 mm 2 mps 705 mmHg 96%

    Day after tomorrow, 1 April, Wednesday

    Time Temperature Precipitation Wind Pressure Humidity
    00:00 +1°C° 0.9 mm 2 mps 705 mmHg 96%
    01:00 0°C° 0.9 mm 3 mps 705 mmHg 96%
    02:00 -1°C° 0.9 mm 3 mps 705 mmHg 96%
    03:00 -1°C° 0.5 mm 3 mps 705 mmHg 95%
    04:00 -2°C° 0.5 mm 3 mps 705 mmHg 94%
    05:00 -2°C° 0.5 mm 3 mps 705 mmHg 92%
    06:00 -2°C° 0.1 mm 2 mps 705 mmHg 91%
    07:00 -2°C° 0.1 mm 2 mps 705 mmHg 89%
    08:00 -2°C° 0.1 mm 2 mps 705 mmHg 88%
    09:00 -2°C° 0.2 mm 2 mps 706 mmHg 88%
    10:00 -1°C° 0.2 mm 3 mps 706 mmHg 88%
    11:00 0°C° 0.2 mm 3 mps 706 mmHg 88%
    12:00 0°C° 0.2 mm 3 mps 706 mmHg 88%
    13:00 +1°C° 0.2 mm 3 mps 706 mmHg 87%
    14:00 +1°C° 0.2 mm 3 mps 706 mmHg 87%
    15:00 +1°C° 0.3 mm 3 mps 705 mmHg 88%
    16:00 +1°C° 0.3 mm 3 mps 705 mmHg 90%
    17:00 0°C° 0.3 mm 3 mps 704 mmHg 91%
    18:00 +1°C° 0.4 mm 2 mps 705 mmHg 92%
    19:00 +1°C° 0.4 mm 2 mps 705 mmHg 93%
    20:00 -1°C° 0.4 mm 2 mps 705 mmHg 94%
    21:00 -1°C° 0.2 mm 2 mps 705 mmHg 93%
    22:00 -1°C° 0.2 mm 2 mps 705 mmHg 92%
    23:00 -2°C° 0.2 mm 2 mps 705 mmHg 92%

    2 April, Thursday

    Time Temperature Precipitation Wind Pressure Humidity
    00:00 -2°C° 0.1 mm 2 mps 704 mmHg 91%
    01:00 -2°C° 0.1 mm 2 mps 704 mmHg 90%
    02:00 -1°C° 0.1 mm 1 mps 704 mmHg 90%
    03:00 -3°C° 0.1 mm 2 mps 704 mmHg 89%
    04:00 -3°C° 0.1 mm 2 mps 704 mmHg 89%
    05:00 -4°C° 0.1 mm 2 mps 704 mmHg 89%
    06:00 -3°C° 0 mm 2 mps 704 mmHg 85%
    07:00 -3°C° 0 mm 2 mps 704 mmHg 81%
    08:00 -2°C° 0 mm 2 mps 704 mmHg 76%
    09:00 -1°C° 0 mm 2 mps 705 mmHg 72%
    10:00 +1°C° 0 mm 2 mps 705 mmHg 68%
    11:00 +2°C° 0 mm 2 mps 705 mmHg 63%
    12:00 +3°C° 0 mm 2 mps 705 mmHg 61%
    13:00 +4°C° 0 mm 2 mps 705 mmHg 59%
    14:00 +5°C° 0 mm 2 mps 705 mmHg 57%
    15:00 +5°C° 0 mm 2 mps 704 mmHg 58%
    16:00 +5°C° 0 mm 2 mps 704 mmHg 58%
    17:00 +5°C° 0 mm 2 mps 704 mmHg 59%
    18:00 +4°C° 0 mm 1 mps 704 mmHg 63%
    19:00 +3°C° 0 mm 1 mps 704 mmHg 67%
    20:00 +1°C° 0 mm 1 mps 704 mmHg 72%
    21:00 +1°C° 0 mm 1 mps 704 mmHg 72%
    22:00 +1°C° 0 mm 1 mps 704 mmHg 72%
    23:00 +1°C° 0 mm 1 mps 704 mmHg 73%

    3 April, Friday

    Time Temperature Precipitation Wind Pressure Humidity
    00:00 0°C° 0 mm 1 mps 704 mmHg 75%
    01:00 0°C° 0 mm 1 mps 704 mmHg 78%
    02:00 0°C° 0 mm 1 mps 704 mmHg 80%
    03:00 0°C° 0 mm 1 mps 703 mmHg 81%
    04:00 0°C° 0 mm 1 mps 703 mmHg 82%
    05:00 0°C° 0 mm 1 mps 703 mmHg 83%
    06:00 +1°C° 0 mm 1 mps 703 mmHg 79%
    07:00 +3°C° 0 mm 1 mps 704 mmHg 75%
    08:00 +4°C° 0 mm 1 mps 704 mmHg 72%
    09:00 +6°C° 0 mm 1 mps 704 mmHg 68%
    10:00 +7°C° 0 mm 1 mps 704 mmHg 65%
    11:00 +9°C° 0 mm 1 mps 704 mmHg 62%
    12:00 +9°C° 0 mm 1 mps 704 mmHg 63%
    13:00 +9°C° 0 mm 1 mps 704 mmHg 63%
    14:00 +10°C° 0 mm 1 mps 704 mmHg 64%
    15:00 +10°C° 0 mm 1 mps 704 mmHg 65%
    16:00 +9°C° 0 mm 1 mps 703 mmHg 67%
    17:00 +9°C° 0 mm 1 mps 703 mmHg 69%
    18:00 +8°C° 0 mm 1 mps 703 mmHg 73%
    19:00 +7°C° 0 mm 1 mps 703 mmHg 77%
    20:00 +6°C° 0 mm 1 mps 704 mmHg 81%
    21:00 +5°C° 0 mm 1 mps 704 mmHg 81%
    22:00 +5°C° 0 mm 1 mps 704 mmHg 82%
    23:00 +4°C° 0 mm 1 mps 705 mmHg 83%

    4 April, Saturday

    Time Temperature Precipitation Wind Pressure Humidity
    00:00 +4°C° 0 mm 1 mps 705 mmHg 82%
    01:00 +4°C° 0 mm 1 mps 705 mmHg 82%
    02:00 +4°C° 0 mm 1 mps 705 mmHg 81%
    03:00 +3°C° 0 mm 1 mps 705 mmHg 81%
    04:00 +3°C° 0 mm 1 mps 705 mmHg 81%
    05:00 +2°C° 0 mm 2 mps 705 mmHg 80%
    06:00 +3°C° 0 mm 2 mps 706 mmHg 77%
    07:00 +3°C° 0 mm 3 mps 707 mmHg 74%
    08:00 +4°C° 0 mm 4 mps 707 mmHg 71%
    09:00 +6°C° 0 mm 4 mps 707 mmHg 68%
    10:00 +7°C° 0 mm 5 mps 708 mmHg 64%
    11:00 +8°C° 0 mm 5 mps 708 mmHg 60%
    12:00 +8°C° 0.1 mm 6 mps 708 mmHg 59%
    13:00 +8°C° 0.1 mm 6 mps 709 mmHg 57%
    14:00 +8°C° 0.1 mm 6 mps 709 mmHg 55%
    15:00 +8°C° 0.1 mm 5 mps 709 mmHg 60%
    16:00 +7°C° 0.1 mm 5 mps 709 mmHg 64%
    17:00 +6°C° 0.1 mm 4 mps 709 mmHg 69%
    18:00 +5°C° 0.1 mm 3 mps 710 mmHg 76%
    19:00 +4°C° 0.1 mm 2 mps 710 mmHg 82%
    20:00 +3°C° 0.1 mm 2 mps 711 mmHg 89%
    21:00 +4°C° 0.1 mm 1 mps 712 mmHg 88%
    22:00 +3°C° 0.1 mm 1 mps 713 mmHg 87%
    23:00 +3°C° 0.1 mm 1 mps 713 mmHg 86%
    Show more